�������l�o���
Date,Time,MP-1(��Sv/h),MP-2(��Sv/h),MP-3(��Sv/h),MP-4(��Sv/h),MP-5(��Sv/h),MP-6(��Sv/h),MP-7(��Sv/h),����,����(m/s),���J
2015/09/17,00:00,0.484,0.282,0.505,0.468,0.455,0.227,0.198,��쐼,1.0,��
2015/09/17,00:10,0.480,0.282,0.510,0.468,0.454,0.227,0.197,���k��,0.9,��
2015/09/17,00:20,0.485,0.281,0.505,0.468,0.457,0.227,0.197,-,CALM,��
2015/09/17,00:30,0.481,0.282,0.510,0.466,0.453,0.226,0.197,-,CALM,��
2015/09/17,00:40,0.486,0.281,0.504,0.470,0.456,0.227,0.197,-,CALM,��
2015/09/17,00:50,0.482,0.282,0.510,0.463,0.451,0.227,0.197,���k��,0.8,��
2015/09/17,01:00,0.485,0.281,0.506,0.469,0.457,0.228,0.197,-,CALM,��
2015/09/17,01:10,0.482,0.280,0.507,0.464,0.451,0.226,0.199,-,CALM,��
2015/09/17,01:20,0.483,0.284,0.506,0.470,0.456,0.227,0.197,-,CALM,��
2015/09/17,01:30,0.485,0.280,0.506,0.466,0.450,0.227,0.198,��,1.3,��
2015/09/17,01:40,0.481,0.283,0.508,0.466,0.455,0.227,0.197,�쓌,0.7,��
2015/09/17,01:50,0.486,0.280,0.505,0.468,0.454,0.227,0.198,��,1.8,��
2015/09/17,02:00,0.479,0.283,0.509,0.465,0.454,0.228,0.198,��쓌,2.5,��
2015/09/17,02:10,0.485,0.280,0.505,0.468,0.456,0.226,0.198,��쓌,2.7,��
2015/09/17,02:20,0.482,0.283,0.511,0.467,0.452,0.227,0.198,��쓌,2.7,��
2015/09/17,02:30,0.483,0.281,0.506,0.469,0.457,0.228,0.196,��쓌,2.7,��
2015/09/17,02:40,0.486,0.282,0.507,0.464,0.450,0.227,0.198,��쓌,2.9,��
2015/09/17,02:50,0.480,0.282,0.510,0.467,0.458,0.227,0.198,��,2.0,��
2015/09/17,03:00,0.486,0.282,0.504,0.467,0.451,0.226,0.198,��쓌,1.7,��
2015/09/17,03:10,0.482,0.282,0.507,0.467,0.453,0.227,0.197,��쓌,1.6,��
2015/09/17,03:20,0.484,0.280,0.505,0.468,0.455,0.226,0.197,��쓌,1.8,��
2015/09/17,03:30,0.482,0.282,0.511,0.467,0.452,0.227,0.197,��쓌,1.6,��
2015/09/17,03:40,0.483,0.281,0.507,0.469,0.457,0.226,0.199,��,1.6,��
2015/09/17,03:50,0.484,0.284,0.510,0.464,0.451,0.226,0.197,��,1.6,��
2015/09/17,04:00,0.480,0.280,0.508,0.471,0.457,0.227,0.198,��쐼,1.6,��
2015/09/17,04:10,0.486,0.283,0.505,0.465,0.451,0.226,0.197,��,1.5,��
2015/09/17,04:20,0.481,0.281,0.510,0.467,0.455,0.227,0.198,��,1.7,��
2015/09/17,04:30,0.485,0.282,0.503,0.466,0.454,0.227,0.198,��,1.9,��
2015/09/17,04:40,0.482,0.281,0.509,0.469,0.453,0.228,0.199,��,1.7,��
2015/09/17,04:50,0.484,0.282,0.506,0.470,0.454,0.226,0.196,��쓌,1.1,��
2015/09/17,05:00,0.483,0.282,0.510,0.465,0.451,0.228,0.198,-,CALM,��
2015/09/17,05:10,0.482,0.281,0.507,0.469,0.457,0.227,0.197,-,CALM,��
2015/09/17,05:20,0.487,0.282,0.506,0.464,0.451,0.227,0.198,���쓌,0.7,��
2015/09/17,05:30,0.480,0.280,0.510,0.470,0.456,0.227,0.197,-,CALM,��
2015/09/17,05:40,0.486,0.283,0.504,0.467,0.451,0.227,0.198,���k��,0.5,��
2015/09/17,05:50,0.482,0.280,0.511,0.467,0.454,0.227,0.197,�k��,0.7,��
2015/09/17,06:00,0.483,0.283,0.504,0.466,0.454,0.227,0.198,�k��,0.5,��
2015/09/17,06:10,0.484,0.281,0.509,0.465,0.453,0.227,0.197,�k,0.9,��
2015/09/17,06:20,0.481,0.281,0.507,0.471,0.456,0.226,0.198,�k,1.1,��
2015/09/17,06:30,0.485,0.282,0.507,0.465,0.451,0.227,0.196,�k,1.4,�L
2015/09/17,06:40,0.481,0.283,0.510,0.469,0.456,0.227,0.198,�k,1.6,�L
2015/09/17,06:50,0.484,0.283,0.505,0.465,0.452,0.226,0.197,�k,1.8,�L
2015/09/17,07:00,0.482,0.281,0.510,0.468,0.455,0.226,0.197,�k�k��,1.8,��
2015/09/17,07:10,0.482,0.283,0.505,0.467,0.454,0.225,0.198,�k,1.9,�L
2015/09/17,07:20,0.488,0.280,0.508,0.465,0.450,0.227,0.197,�k,1.1,�L
2015/09/17,07:30,0.480,0.283,0.508,0.466,0.456,0.226,0.198,�k,1.5,�L
2015/09/17,07:40,0.484,0.280,0.505,0.463,0.449,0.227,0.198,�k,1.8,�L
2015/09/17,07:50,0.486,0.281,0.509,0.470,0.456,0.227,0.197,�k,2.1,�L
2015/09/17,08:00,0.481,0.284,0.506,0.466,0.455,0.227,0.196,�k,2.4,�L
2015/09/17,08:10,0.488,0.281,0.509,0.466,0.452,0.227,0.198,�k,3.0,�L
2015/09/17,08:20,0.484,0.284,0.509,0.468,0.457,0.226,0.197,�k,3.1,�L
2015/09/17,08:30,0.484,0.282,0.505,0.464,0.451,0.228,0.197,�k�k��,3.8,�L
2015/09/17,08:40,0.485,0.282,0.511,0.470,0.456,0.227,0.199,�k�k��,4.3,�L
2015/09/17,08:50,0.481,0.283,0.505,0.466,0.453,0.227,0.197,�k�k��,4.4,�L
2015/09/17,09:00,0.488,0.281,0.509,0.466,0.451,0.228,0.198,�k�k��,3.9,�L
2015/09/17,09:10,0.482,0.283,0.508,0.468,0.455,0.227,0.198,�k�k��,3.6,�L
2015/09/17,09:20,0.485,0.281,0.504,0.463,0.450,0.228,0.198,�k�k��,3.8,�L
2015/09/17,09:30,0.482,0.283,0.507,0.467,0.452,0.227,0.197,�k�k��,3.6,�L
2015/09/17,09:40,0.481,0.281,0.502,0.460,0.448,0.227,0.198,�k�k��,2.5,�L
2015/09/17,09:50,0.483,0.283,0.507,0.463,0.451,0.227,0.197,�k�k��,2.3,�L
2015/09/17,10:00,0.478,0.282,0.502,0.462,0.451,0.226,0.196,�k,2.5,�L
2015/09/17,10:10,0.481,0.280,0.502,0.461,0.448,0.227,0.196,�k�k��,2.3,�L
2015/09/17,10:20,0.477,0.281,0.503,0.461,0.450,0.226,0.195,�k�k��,3.1,�L
2015/09/17,10:30,0.479,0.278,0.496,0.457,0.446,0.226,0.196,�k�k��,2.9,�L
2015/09/17,10:40,0.476,0.280,0.500,0.460,0.450,0.224,0.194,�k��,2.2,�L
2015/09/17,10:50,0.473,0.278,0.494,0.453,0.444,0.224,0.195,�k��,2.8,�L
2015/09/17,11:00,0.476,0.277,0.495,0.454,0.447,0.225,0.193,�k��,2.7,�L
2015/09/17,11:10,0.471,0.280,0.494,0.453,0.448,0.223,0.194,�k�k��,2.8,�L
2015/09/17,11:20,0.474,0.277,0.492,0.452,0.445,0.224,0.193,�k��,2.6,�L
2015/09/17,11:30,0.473,0.280,0.495,0.457,0.451,0.222,0.193,�k�k��,2.8,�L
2015/09/17,11:40,0.475,0.279,0.490,0.452,0.444,0.225,0.194,�k�k��,6.7,�L
2015/09/17,11:50,0.475,0.281,0.493,0.455,0.449,0.225,0.192,�k�k��,3.7,�L
2015/09/17,12:00,0.473,0.279,0.492,0.452,0.447,0.224,0.195,�k,2.5,�L
2015/09/17,12:10,0.475,0.280,0.491,0.453,0.446,0.224,0.192,�k��,2.6,�L
2015/09/17,12:20,0.473,0.279,0.492,0.454,0.448,0.224,0.194,�k�k��,2.1,�L
2015/09/17,12:30,0.478,0.278,0.490,0.450,0.445,0.226,0.192,�k,3.2,�L
2015/09/17,12:40,0.470,0.279,0.491,0.453,0.447,0.222,0.194,�k,3.3,�L
2015/09/17,12:50,0.474,0.274,0.485,0.449,0.445,0.223,0.190,�k�k��,2.8,�L
2015/09/17,13:00,0.468,0.278,0.491,0.450,0.449,0.221,0.193,�k�k��,2.2,�L
2015/09/17,13:10,0.471,0.275,0.485,0.448,0.442,0.223,0.192,�k�k��,3.9,�L
2015/09/17,13:20,0.470,0.278,0.488,0.450,0.446,0.223,0.192,�k�k��,4.1,�L
2015/09/17,13:30,0.470,0.274,0.488,0.450,0.444,0.221,0.192,�k�k��,3.6,�L
2015/09/17,13:40,0.470,0.276,0.486,0.446,0.448,0.222,0.192,�k�k��,3.9,�L
2015/09/17,13:50,0.468,0.275,0.485,0.450,0.444,0.220,0.191,�k�k��,3.8,�L
2015/09/17,14:00,0.470,0.275,0.481,0.445,0.444,0.222,0.191,�k��,4.7,�L
2015/09/17,14:10,0.468,0.275,0.484,0.447,0.444,0.220,0.190,�k�k��,4.2,�L
2015/09/17,14:20,0.470,0.274,0.480,0.441,0.440,0.221,0.190,�k�k��,4.0,�L
2015/09/17,14:30,0.463,0.275,0.484,0.447,0.443,0.220,0.190,�k�k��,4.2,�L
2015/09/17,14:40,0.467,0.273,0.479,0.444,0.440,0.221,0.190,�k�k��,3.6,�L
2015/09/17,14:50,0.462,0.274,0.484,0.446,0.445,0.219,0.189,�k,4.8,�L
2015/09/17,15:00,0.467,0.271,0.478,0.440,0.440,0.218,0.189,�k,5.3,�L
2015/09/17,15:10,0.461,0.272,0.479,0.442,0.444,0.219,0.190,�k�k��,4.1,�L
2015/09/17,15:20,0.465,0.272,0.479,0.441,0.440,0.218,0.189,���k��,2.9,�L
2015/09/17,15:30,0.464,0.275,0.477,0.439,0.446,0.220,0.189,�k�k��,4.2,�L
2015/09/17,15:40,0.464,0.272,0.481,0.441,0.439,0.219,0.190,�k�k��,5.3,�L
2015/09/17,15:50,0.464,0.273,0.477,0.439,0.446,0.220,0.190,�k,5.3,�L
2015/09/17,16:00,0.464,0.271,0.482,0.445,0.440,0.217,0.190,�k,5.8,�L
2015/09/17,16:10,0.463,0.272,0.478,0.440,0.445,0.219,0.189,�k,5.9,�L
2015/09/17,16:20,0.463,0.271,0.482,0.443,0.441,0.218,0.189,�k,5.3,�L
2015/09/17,16:30,0.463,0.272,0.476,0.438,0.444,0.217,0.188,�k��,2.8,�L
2015/09/17,16:40,0.459,0.270,0.480,0.441,0.442,0.218,0.188,���k��,6.5,�L
2015/09/17,16:50,0.464,0.270,0.475,0.436,0.443,0.217,0.187,���k��,7.3,�L
2015/09/17,17:00,0.459,0.271,0.479,0.440,0.443,0.218,0.189,�k��,6.1,�L
2015/09/17,17:10,0.464,0.273,0.477,0.439,0.443,0.217,0.188,�k��,6.9,�L
2015/09/17,17:20,0.459,0.271,0.477,0.440,0.441,0.218,0.187,�k��,6.4,�L
2015/09/17,17:30,0.462,0.271,0.477,0.438,0.440,0.217,0.187,�k��,6.1,�L
2015/09/17,17:40,0.456,0.271,0.472,0.431,0.440,0.217,0.187,�k��,8.0,�L
2015/09/17,17:50,0.460,0.271,0.478,0.437,0.439,0.217,0.188,�k��,6.5,�L
2015/09/17,18:00,0.460,0.272,0.474,0.433,0.442,0.216,0.187,�k��,7.6,�L
2015/09/17,18:10,0.458,0.271,0.479,0.438,0.439,0.217,0.187,�k��,5.8,�L
2015/09/17,18:20,0.462,0.274,0.474,0.434,0.444,0.218,0.189,�k��,6.4,�L
2015/09/17,18:30,0.458,0.272,0.479,0.440,0.440,0.218,0.189,���k��,4.2,�L
2015/09/17,18:40,0.460,0.272,0.471,0.433,0.441,0.216,0.187,�k�k��,5.8,�L
2015/09/17,18:50,0.452,0.270,0.475,0.431,0.435,0.216,0.187,�k��,3.6,�L
2015/09/17,19:00,0.458,0.271,0.470,0.429,0.439,0.215,0.186,�k�k��,1.9,�L
2015/09/17,19:10,0.455,0.270,0.473,0.431,0.437,0.216,0.187,�k�k��,11.4,�L
2015/09/17,19:20,0.460,0.272,0.474,0.434,0.441,0.217,0.187,�k��,8.7,�L
2015/09/17,19:30,0.458,0.271,0.471,0.432,0.440,0.217,0.187,�k��,8.6,�L
2015/09/17,19:40,0.458,0.271,0.475,0.435,0.439,0.216,0.187,�k��,9.6,�L
2015/09/17,19:50,0.459,0.273,0.469,0.431,0.441,0.215,0.189,�k��,7.5,�L
2015/09/17,20:00,0.457,0.273,0.475,0.437,0.437,0.215,0.188,���k��,7.9,�L
2015/09/17,20:10,0.460,0.273,0.470,0.432,0.444,0.215,0.189,���k��,7.8,�L
2015/09/17,20:20,0.457,0.271,0.477,0.438,0.438,0.216,0.188,���k��,5.5,�L
2015/09/17,20:30,0.460,0.272,0.472,0.435,0.443,0.214,0.187,�k��,7.3,�L
2015/09/17,20:40,0.456,0.270,0.471,0.432,0.437,0.215,0.186,�k��,8.9,�L
2015/09/17,20:50,0.456,0.272,0.470,0.433,0.441,0.214,0.187,�k��,9.4,�L
2015/09/17,21:00,0.454,0.269,0.467,0.429,0.437,0.213,0.186,�k��,7.3,�L
2015/09/17,21:10,0.456,0.271,0.471,0.433,0.437,0.213,0.185,�k�k��,6.1,�L
2015/09/17,21:20,0.457,0.268,0.466,0.427,0.435,0.212,0.185,�k�k��,3.9,�L
2015/09/17,21:30,0.453,0.270,0.469,0.433,0.437,0.212,0.186,�k��,7.6,�L
2015/09/17,21:40,0.457,0.269,0.465,0.430,0.438,0.212,0.185,���k��,7.0,�L
2015/09/17,21:50,0.451,0.270,0.469,0.433,0.435,0.213,0.185,�k�k��,5.4,�L
2015/09/17,22:00,0.455,0.270,0.464,0.427,0.437,0.210,0.185,�k��,6.2,�L
2015/09/17,22:10,0.448,0.268,0.462,0.426,0.432,0.210,0.184,�k��,11.2,�L
2015/09/17,22:20,0.450,0.268,0.456,0.420,0.433,0.210,0.182,�k��,3.0,�L
2015/09/17,22:30,0.447,0.267,0.459,0.425,0.431,0.210,0.184,�k�k��,8.3,�L
2015/09/17,22:40,0.450,0.268,0.460,0.428,0.437,0.210,0.182,�k,6.4,�L
2015/09/17,22:50,0.451,0.266,0.457,0.427,0.430,0.209,0.184,�k,7.5,�L
2015/09/17,23:00,0.448,0.269,0.460,0.432,0.436,0.210,0.183,�k�k��,5.9,�L
2015/09/17,23:10,0.450,0.269,0.457,0.426,0.431,0.209,0.183,�k�k��,8.4,�L
2015/09/17,23:20,0.448,0.271,0.464,0.431,0.437,0.211,0.184,�k,8.2,�L
2015/09/17,23:30,0.453,0.267,0.461,0.428,0.432,0.210,0.185,�k,7.3,�L
2015/09/17,23:40,0.447,0.269,0.465,0.431,0.437,0.211,0.183,�k�k��,5.9,�L
2015/09/17,23:50,0.451,0.266,0.458,0.423,0.430,0.209,0.184,�k��,3.8,�L
